Regional Weather Roundup
Issued by NWS

Home | Current Version | Previous Version | Text Only | Print | Product List | Glossary Off
Versions: 1 2 3 4 5 6 7 8 9 10 11 12 13 14 15 16 17 18 19 20 21 22 23 24 25 26 27 28 29 30 31 32 33 34 35 36 37 38 39 40 41 42 43 44 45 46 47 48 49 50

000
ASUS43 KTOP 131108
RWRKS

WEATHER ROUNDUP FOR KANSAS
NATIONAL WEATHER SERVICE GOODLAND KS
500 AM CST SAT FEB 13 2016

NOTE:  "FAIR" INDICATES FEW OR NO CLOUDS BELOW 12,000 FEET WITH NO
SIGNIFICANT WEATHER AND/OR OBSTRUCTIONS TO VISIBILITY.

KSZ001>006-013>018-027>032-041>047-131200-
NORTHWEST KANSAS

CITY           SKY/WX    TMP DP  RH WIND       PRES   REMARKS
GOODLAND       CLOUDY    26  24  92 S20       30.26F FOG     WCI  12
HAYS           CLOUDY    21   9  58 E13       30.43S WCI   9
HILL CITY      CLOUDY    22  17  81 E10       30.41F WCI  11
RUSSELL        CLOUDY    19  14  81 E9        30.44F
$$

KSZ061>065-074>080-084>089-131200-
SOUTHWEST KANSAS

CITY           SKY/WX    TMP DP  RH WIND       PRES   REMARKS
DODGE CITY     CLOUDY    21  18  88 E6        30.38S
ELKHART          N/A     25  19  78 SE13        N/A  WCI  14
GARDEN CITY    CLOUDY    22  20  92 SE8       30.34F
GREAT BEND     CLOUDY    21  10  63 E9        30.44F
LIBERAL        CLOUDY    27  21  80 SE6       30.35S
PRATT          CLOUDY    20  15  79 E7        30.43R
$$

KSZ066>073-081>083-090>101-131200-
SOUTHEAST KANSAS

CITY           SKY/WX    TMP DP  RH WIND       PRES   REMARKS
CHANUTE        CLOUDY    25   9  50 E8        30.54S
COFFEYVILLE    CLOUDY    26   7  44 NE10      30.53F WCI  16
HUTCHINSON     CLOUDY    22  13  68 E8        30.47F
MEDICINE LODGE   N/A     24  18  77 E5        30.44S
NEWTON         CLOUDY    19   9  63 E7        30.49F
PARSONS        CLOUDY    26   8  46 NE6       30.53F
WICHITA INTL   CLOUDY    25  11  55 E10       30.48S WCI  15
WICHITA JABRA  CLOUDY    21  11  65 NE9       30.48F
WICHITA MCCONL CLOUDY    24  11  58 E10       30.48S WCI  13
WINFIELD       CLOUDY    25  12  58 NE8       30.48F
$$

KSZ007>012-019>026-033>040-048>060-102>105-131200-
NORTHEAST KANSAS

CITY           SKY/WX    TMP DP  RH WIND       PRES   REMARKS
CONCORDIA      CLOUDY    19  10  68 E8        30.52S
EMPORIA        CLOUDY    21  -1  38 NE13      30.53F WCI   9
LAWRENCE       CLOUDY    19   3  49 NE8       30.61R
MANHATTAN      CLOUDY    20   8  60 E9        30.56F
MARYSVILLE     CLOUDY    19   9  63 E6        30.57S
OLATHE IND     CLOUDY    19   2  47 NE9       30.58S
OLATHE EXE     CLOUDY    17   1  49 NE7       30.57S
SALINA         CLOUDY    22  12  65 E8        30.52F
TOPEKA BILLARD CLOUDY    20   5  52 NE7       30.59S
TOPEKA FORBES  CLOUDY    20   5  52 NE8       30.57S
$$



USA.gov is the U.S. government's official web portal to all federal, state and local government web resources and services.